Station Historical Data
Daily Summary for June 6, 2017 Units:  Metric    English   Both
« Previous Day
Next Day »
Daily Weekly Monthly Yearly Custom
  High: Low: Average:
Temperature: 18.2 °C 10.7 °C 13.9 °C
Dew Point: 15.2 °C 9.4 °C 11.8 °C
Humidity: 92% 76% 88%
Wind Speed: 17.7km/h 0km/h 5.1km/h
Wind Gust: 25.7km/h - -
Wind- - South
Pressure: 1015.1 hPa 1006.3 hPa -
Precipitation: 0 mm    
Historical Graphs
 
 
Tabular Data for June 6, 2017
Time Temperature Dew Point Pressure Wind Wind Speed Wind Gust Humidity Rainfall Rate (Hourly)
00:04 14.6 °C 11.8 °C 1007.7 hPa Calm   8 km/h 83% 0 mm
00:09 14.6 °C 11.8 °C 1007.7 hPa WNW 3.2 km/h 6.4 km/h 83% 0 mm
00:14 14.6 °C 11.7 °C 1007.7 hPa WSW 1.6 km/h 8 km/h 83% 0 mm
00:19 14.6 °C 11.7 °C 1007.7 hPa West 1.6 km/h 8 km/h 83% 0 mm
00:24 14.6 °C 11.7 °C 1007.3 hPa WSW 1.6 km/h 4.8 km/h 83% 0 mm
00:29 14.5 °C 11.7 °C 1007.3 hPa WSW 1.6 km/h 4.8 km/h 83% 0 mm
00:34 14.4 °C 11.6 °C 1007.3 hPa WSW 3.2 km/h 4.8 km/h 83% 0 mm
00:39 14.4 °C 11.6 °C 1007.3 hPa WSW 3.2 km/h 4.8 km/h 83% 0 mm
00:44 14.3 °C 11.7 °C 1007.3 hPa Calm   4.8 km/h 84% 0 mm
00:49 14.2 °C 11.6 °C 1007.3 hPa WSW 1.6 km/h 4.8 km/h 84% 0 mm
00:54 14.2 °C 11.5 °C 1007.3 hPa WSW 1.6 km/h 3.2 km/h 84% 0 mm
00:59 14.2 °C 11.7 °C 1007 hPa Calm   3.2 km/h 85% 0 mm
01:04 14.2 °C 11.7 °C 1007 hPa West 1.6 km/h 4.8 km/h 85% 0 mm
01:09 14.2 °C 11.7 °C 1007 hPa West 1.6 km/h 4.8 km/h 85% 0 mm
01:14 14.2 °C 11.7 °C 1007 hPa West 3.2 km/h 3.2 km/h 85% 0 mm
01:19 14.2 °C 11.7 °C 1007 hPa West 1.6 km/h 4.8 km/h 85% 0 mm
01:24 14.2 °C 11.7 °C 1007 hPa West 3.2 km/h 4.8 km/h 85% 0 mm
01:29 14.2 °C 11.7 °C 1007 hPa West 1.6 km/h 6.4 km/h 85% 0 mm
01:34 14.2 °C 11.7 °C 1007 hPa West 1.6 km/h 3.2 km/h 85% 0 mm
01:39 14.2 °C 11.7 °C 1007 hPa West 1.6 km/h 3.2 km/h 85% 0 mm
01:44 14.2 °C 11.7 °C 1007 hPa WNW 1.6 km/h 4.8 km/h 85% 0 mm
01:49 14.2 °C 11.7 °C 1007 hPa NW 1.6 km/h 8 km/h 85% 0 mm
01:54 14.3 °C 11.8 °C 1006.7 hPa NW 1.6 km/h 8 km/h 85% 0 mm
01:59 14.3 °C 11.6 °C 1007 hPa NW 3.2 km/h 8 km/h 84% 0 mm
02:04 14.2 °C 11.6 °C 1006.7 hPa NW 3.2 km/h 8 km/h 84% 0 mm
02:09 14.2 °C 11.6 °C 1006.7 hPa WNW 1.6 km/h 6.4 km/h 84% 0 mm
02:14 14.2 °C 11.7 °C 1006.7 hPa WNW 1.6 km/h 4.8 km/h 85% 0 mm
02:19 14.2 °C 11.7 °C 1006.7 hPa WNW 1.6 km/h 4.8 km/h 85% 0 mm
02:24 14.2 °C 11.7 °C 1006.7 hPa WNW 1.6 km/h 4.8 km/h 85% 0 mm
02:29 14.2 °C 11.7 °C 1006.7 hPa WNW 1.6 km/h 4.8 km/h 85% 0 mm
02:34 14.2 °C 11.7 °C 1006.7 hPa WNW 3.2 km/h 4.8 km/h 85% 0 mm
02:39 14.2 °C 11.7 °C 1006.7 hPa WNW 3.2 km/h 6.4 km/h 85% 0 mm
02:44 14.2 °C 11.7 °C 1006.7 hPa WNW 4.8 km/h 8 km/h 85% 0 mm
02:49 14.1 °C 11.6 °C 1006.7 hPa WNW 3.2 km/h 9.7 km/h 85% 0 mm
02:54 14.1 °C 11.6 °C 1006.7 hPa WNW 3.2 km/h 9.7 km/h 85% 0 mm
02:59 14.1 °C 11.7 °C 1006.7 hPa WNW 1.6 km/h 6.4 km/h 86% 0 mm
03:04 14.1 °C 11.8 °C 1006.7 hPa WNW 1.6 km/h 8 km/h 86% 0 mm
03:09 14.1 °C 11.8 °C 1006.7 hPa WNW 3.2 km/h 8 km/h 86% 0 mm
03:14 14.1 °C 11.7 °C 1006.7 hPa WNW 4.8 km/h 9.7 km/h 86% 0 mm
03:19 14.1 °C 11.7 °C 1006.7 hPa West 1.6 km/h 8 km/h 86% 0 mm
03:24 14.1 °C 11.7 °C 1006.7 hPa WNW 1.6 km/h 8 km/h 86% 0 mm
03:29 14.1 °C 11.7 °C 1006.7 hPa WNW 1.6 km/h 9.7 km/h 86% 0 mm
03:34 14 °C 11.7 °C 1006.7 hPa WNW 3.2 km/h 9.7 km/h 86% 0 mm
03:39 13.9 °C 11.7 °C 1006.7 hPa WNW 3.2 km/h 9.7 km/h 86% 0 mm
03:44 13.9 °C 11.7 °C 1006.7 hPa WNW 3.2 km/h 6.4 km/h 86% 0 mm
03:49 13.9 °C 11.7 °C 1006.7 hPa WNW 3.2 km/h 11.3 km/h 86% 0 mm
03:54 13.9 °C 11.7 °C 1006.7 hPa West 4.8 km/h 11.3 km/h 86% 0 mm
03:59 13.9 °C 11.6 °C 1006.7 hPa West 4.8 km/h 9.7 km/h 86% 0 mm
04:04 13.9 °C 11.6 °C 1006.7 hPa West 4.8 km/h 9.7 km/h 86% 0 mm
04:09 13.8 °C 11.6 °C 1006.7 hPa West 4.8 km/h 11.3 km/h 86% 0 mm
04:14 13.7 °C 11.6 °C 1006.7 hPa West 4.8 km/h 11.3 km/h 87% 0 mm
04:19 13.7 °C 11.6 °C 1006.7 hPa WNW 1.6 km/h 6.4 km/h 87% 0 mm
04:24 13.6 °C 11.7 °C 1006.7 hPa Calm   4.8 km/h 88% 0 mm
04:29 13.6 °C 11.7 °C 1006.7 hPa West 4.8 km/h 8 km/h 88% 0.25 mm
04:34 13.6 °C 11.8 °C 1006.7 hPa West 1.6 km/h 8 km/h 89% 0.25 mm
04:39 13.5 °C 11.7 °C 1006.7 hPa West 3.2 km/h 11.3 km/h 89% 0.25 mm
04:44 13.5 °C 11.7 °C 1006.7 hPa West 3.2 km/h 8 km/h 89% 0.25 mm
04:49 13.4 °C 11.7 °C 1006.7 hPa West 3.2 km/h 8 km/h 89% 0.25 mm
04:54 13.5 °C 11.7 °C 1006.7 hPa West 3.2 km/h 6.4 km/h 89% 0.25 mm
04:59 13.4 °C 11.7 °C 1006.7 hPa West 4.8 km/h 9.7 km/h 89% 0.25 mm
05:04 13.4 °C 11.7 °C 1006.7 hPa NW 6.4 km/h 9.7 km/h 89% 0.25 mm
05:09 13.4 °C 11.8 °C 1006.7 hPa WNW 4.8 km/h 9.7 km/h 90% 0.25 mm
05:14 13.4 °C 11.8 °C 1006.7 hPa WNW 6.4 km/h 9.7 km/h 90% 0.25 mm
05:19 13.3 °C 11.7 °C 1006.7 hPa WNW 4.8 km/h 9.7 km/h 90% 0.25 mm
05:24 13.3 °C 11.7 °C 1006.7 hPa WNW 4.8 km/h 9.7 km/h 90% 0 mm
05:29 13.3 °C 11.7 °C 1006.7 hPa WNW 4.8 km/h 9.7 km/h 90% 0 mm
05:34 13.3 °C 11.7 °C 1006.7 hPa WNW 4.8 km/h 9.7 km/h 90% 0 mm
05:39 13.3 °C 11.7 °C 1006.3 hPa WNW 4.8 km/h 9.7 km/h 90% 0 mm
05:44 13.3 °C 11.7 °C 1006.7 hPa Calm   6.4 km/h 90% 0 mm
05:49 13.3 °C 11.7 °C 1006.7 hPa West 8 km/h 8 km/h 90% 0 mm
05:54 13.3 °C 11.7 °C 1006.7 hPa WNW 6.4 km/h 9.7 km/h 90% 0 mm
05:59 13.3 °C 11.7 °C 1006.7 hPa West 9.7 km/h 9.7 km/h 90% 0 mm
06:04 13.3 °C 11.7 °C 1006.7 hPa WNW 3.2 km/h 11.3 km/h 90% 0 mm
06:09 13.3 °C 11.7 °C 1006.7 hPa West 3.2 km/h 9.7 km/h 90% 0 mm
06:14 13.3 °C 11.9 °C 1006.7 hPa WNW 6.4 km/h 11.3 km/h 91% 0 mm
06:19 13.4 °C 11.9 °C 1006.7 hPa West 6.4 km/h 8 km/h 91% 0 mm
06:24 13.4 °C 11.9 °C 1007 hPa WNW 4.8 km/h 11.3 km/h 91% 0 mm
06:29 13.3 °C 11.9 °C 1007 hPa WNW 6.4 km/h 16.1 km/h 91% 0 mm
06:34 13.4 °C 11.9 °C 1007 hPa WNW 6.4 km/h 16.1 km/h 91% 0 mm
06:39 13.4 °C 12 °C 1007 hPa WNW 3.2 km/h 9.7 km/h 91% 0 mm
06:44 13.4 °C 11.9 °C 1007 hPa NW 6.4 km/h 11.3 km/h 91% 0 mm
06:49 13.4 °C 11.9 °C 1007 hPa WNW 6.4 km/h 11.3 km/h 91% 0 mm
06:54 13.3 °C 11.9 °C 1007 hPa WNW 4.8 km/h 11.3 km/h 91% 0 mm
06:59 13.4 °C 12 °C 1007 hPa West 3.2 km/h 9.7 km/h 91% 0 mm
07:04 13.4 °C 12 °C 1007 hPa WNW 1.6 km/h 9.7 km/h 91% 0 mm
07:09 13.4 °C 12 °C 1007 hPa WNW 3.2 km/h 9.7 km/h 91% 0 mm
07:14 13.5 °C 12.1 °C 1007 hPa West 4.8 km/h 12.9 km/h 91% 0 mm
07:19 13.5 °C 12.1 °C 1007 hPa West 3.2 km/h 8 km/h 91% 0 mm
07:24 13.6 °C 12.1 °C 1007.3 hPa West 4.8 km/h 9.7 km/h 91% 0 mm
07:29 13.6 °C 12.2 °C 1007.3 hPa West 4.8 km/h 9.7 km/h 91% 0 mm
07:34 13.7 °C 12.2 °C 1007.3 hPa West 3.2 km/h 9.7 km/h 91% 0 mm
07:39 13.7 °C 12.3 °C 1007.3 hPa West 3.2 km/h 8 km/h 91% 0 mm
07:44 13.7 °C 12.3 °C 1007.3 hPa West 3.2 km/h 9.7 km/h 91% 0 mm
07:49 13.7 °C 12.2 °C 1007.3 hPa West 3.2 km/h 9.7 km/h 91% 0 mm
07:54 13.6 °C 12.2 °C 1007.3 hPa WSW 3.2 km/h 9.7 km/h 91% 0.25 mm
07:59 13.6 °C 12.2 °C 1007.3 hPa West 6.4 km/h 8 km/h 91% 0.25 mm
08:04 13.6 °C 12.3 °C 1007.3 hPa WNW 3.2 km/h 9.7 km/h 92% 0.25 mm
08:09 13.6 °C 12.1 °C 1007.3 hPa West 4.8 km/h 8 km/h 91% 0.25 mm
08:14 13.6 °C 12.3 °C 1007.3 hPa West 3.2 km/h 11.3 km/h 92% 0.25 mm
08:19 13.7 °C 12.4 °C 1007.7 hPa West 4.8 km/h 11.3 km/h 92% 0.25 mm
08:24 13.7 °C 12.4 °C 1007.7 hPa WNW 4.8 km/h 11.3 km/h 92% 0.25 mm
08:29 13.7 °C 12.4 °C 1007.7 hPa WNW 4.8 km/h 11.3 km/h 92% 0.25 mm
08:34 13.7 °C 12.4 °C 1007.7 hPa WNW 3.2 km/h 9.7 km/h 92% 0.25 mm
08:39 13.7 °C 12.4 °C 1007.7 hPa NW 6.4 km/h 9.7 km/h 92% 0.25 mm
08:44 13.8 °C 12.5 °C 1007.7 hPa West 3.2 km/h 9.7 km/h 92% 0.25 mm
08:49 13.8 °C 12.6 °C 1007.7 hPa West 4.8 km/h 9.7 km/h 92% 0.51 mm
08:54 13.9 °C 12.6 °C 1007.7 hPa West 3.2 km/h 9.7 km/h 92% 0.25 mm
08:59 13.9 °C 12.7 °C 1007.7 hPa West 3.2 km/h 9.7 km/h 92% 0.25 mm
09:04 14.1 °C 12.8 °C 1007.7 hPa West 3.2 km/h 9.7 km/h 92% 0.25 mm
09:09 14.2 °C 12.9 °C 1008 hPa West 4.8 km/h 12.9 km/h 92% 0.25 mm
09:14 14.2 °C 12.9 °C 1007.7 hPa WNW 3.2 km/h 11.3 km/h 92% 0.25 mm
09:19 14.2 °C 12.7 °C 1008 hPa WNW 4.8 km/h 11.3 km/h 91% 0.25 mm
09:24 14.2 °C 12.7 °C 1008 hPa WNW 3.2 km/h 8 km/h 91% 0.25 mm
09:29 14.2 °C 12.7 °C 1007.7 hPa WNW 6.4 km/h 11.3 km/h 91% 0.25 mm
09:34 14.3 °C 12.9 °C 1008 hPa West 8 km/h 9.7 km/h 91% 0.25 mm
09:39 14.6 °C 12.9 °C 1008 hPa West 3.2 km/h 11.3 km/h 90% 0.25 mm
09:44 14.8 °C 13.1 °C 1008 hPa West 6.4 km/h 11.3 km/h 89% 0.25 mm
09:49 14.7 °C 12.9 °C 1007.7 hPa WNW 6.4 km/h 12.9 km/h 89% 0 mm
09:54 14.7 °C 12.9 °C 1008 hPa WNW 4.8 km/h 12.9 km/h 89% 0 mm
09:59 14.6 °C 12.8 °C 1007.7 hPa WNW 6.4 km/h 11.3 km/h 89% 0 mm
10:04 14.8 °C 13 °C 1008 hPa WNW 6.4 km/h 11.3 km/h 89% 0 mm
10:09 14.9 °C 13.2 °C 1008 hPa NW 4.8 km/h 9.7 km/h 89% 0 mm
10:14 14.9 °C 12.9 °C 1008 hPa NNW 1.6 km/h 8 km/h 88% 0 mm
10:19 14.6 °C 12.8 °C 1008 hPa NW 4.8 km/h 12.9 km/h 89% 0 mm
10:24 14.5 °C 12.9 °C 1008 hPa West 4.8 km/h 11.3 km/h 90% 0 mm
10:29 14.6 °C 12.9 °C 1008 hPa NW 9.7 km/h 12.9 km/h 90% 0 mm
10:34 14.6 °C 12.9 °C 1008 hPa West 9.7 km/h 11.3 km/h 90% 0 mm
10:39 14.7 °C 13.1 °C 1008 hPa West 6.4 km/h 12.9 km/h 90% 0.25 mm
10:44 14.7 °C 13.3 °C 1008 hPa NW 4.8 km/h 8 km/h 91% 0.51 mm
10:49 14.8 °C 13.3 °C 1008 hPa WNW 4.8 km/h 11.3 km/h 91% 0.51 mm
10:54 14.9 °C 13.3 °C 1008 hPa WNW 6.4 km/h 11.3 km/h 90% 0.51 mm
10:59 15.4 °C 13.9 °C 1008 hPa West 6.4 km/h 12.9 km/h 91% 0.51 mm
11:04 15.8 °C 13.9 °C 1008 hPa West 6.4 km/h 12.9 km/h 89% 0.51 mm
11:09 15.7 °C 13.7 °C 1008 hPa WNW 3.2 km/h 9.7 km/h 88% 0.51 mm
11:14 15.6 °C 13.6 °C 1008 hPa Calm   8 km/h 88% 0.51 mm
11:19 16.1 °C 14.3 °C 1008 hPa West 3.2 km/h 11.3 km/h 89% 0.51 mm
11:24 15.9 °C 13.6 °C 1008 hPa WNW 6.4 km/h 16.1 km/h 86% 0.51 mm
11:29 15.6 °C 13.2 °C 1008 hPa NW 3.2 km/h 12.9 km/h 86% 0.51 mm
11:34 16.7 °C 14.7 °C 1008 hPa WNW 9.7 km/h 12.9 km/h 88% 0.51 mm
11:39 17.1 °C 14.5 °C 1008 hPa West 6.4 km/h 12.9 km/h 85% 0.25 mm
11:44 16.8 °C 14.1 °C 1008 hPa NW 3.2 km/h 11.3 km/h 84% 0 mm
11:49 16.8 °C 13.7 °C 1008 hPa NW 4.8 km/h 12.9 km/h 82% 0 mm
11:54 17.4 °C 14.3 °C 1008 hPa NW 4.8 km/h 12.9 km/h 82% 0 mm
11:59 17.8 °C 14.5 °C 1008 hPa NNW 4.8 km/h 11.3 km/h 81% 0 mm
12:04 17.5 °C 14.2 °C 1008 hPa NNW 4.8 km/h 11.3 km/h 81% 0 mm
12:09 17.2 °C 13.9 °C 1008 hPa NW 3.2 km/h 8 km/h 81% 0 mm
12:14 17.1 °C 13.6 °C 1008 hPa NNW 8 km/h 11.3 km/h 80% 0 mm
12:19 17.2 °C 13.7 °C 1008 hPa NNW 6.4 km/h 14.5 km/h 80% 0 mm
12:24 17.3 °C 13.8 °C 1008 hPa NNW 4.8 km/h 14.5 km/h 80% 0 mm
12:29 17.1 °C 12.8 °C 1008 hPa NNW 6.4 km/h 14.5 km/h 76% 0 mm
12:34 17.1 °C 13.4 °C 1008.4 hPa NNW 6.4 km/h 14.5 km/h 79% 0 mm
12:39 16.2 °C 13.2 °C 1008.4 hPa NNW 6.4 km/h 16.1 km/h 82% 0 mm
12:44 15.9 °C 13.6 °C 1008.4 hPa North 3.2 km/h 12.9 km/h 86% 0 mm
12:49 16.1 °C 13.9 °C 1008.4 hPa NNW 11.3 km/h 12.9 km/h 87% 0 mm
12:54 16.3 °C 14.3 °C 1008.4 hPa NNW 6.4 km/h 12.9 km/h 88% 0 mm
12:59 16.9 °C 15.1 °C 1008.4 hPa West 1.6 km/h 9.7 km/h 89% 0 mm
13:04 17.6 °C 15.2 °C 1008.4 hPa NW 4.8 km/h 9.7 km/h 86% 0 mm
13:09 17.4 °C 14.3 °C 1008.4 hPa NNW 3.2 km/h 12.9 km/h 82% 0 mm
13:14 16.7 °C 14 °C 1008.4 hPa NE 1.6 km/h 11.3 km/h 84% 0 mm
13:19 16.7 °C 14.3 °C 1008.4 hPa Calm   9.7 km/h 86% 0 mm
13:24 16.7 °C 14.1 °C 1008.4 hPa NNW 3.2 km/h 9.7 km/h 85% 0 mm
13:29 16.6 °C 13.8 °C 1008.4 hPa North 4.8 km/h 11.3 km/h 84% 0 mm
13:34 16.6 °C 14 °C 1008.4 hPa North 6.4 km/h 19.3 km/h 85% 0 mm
13:39 17.3 °C 14.9 °C 1008.4 hPa NNW 6.4 km/h 19.3 km/h 86% 0 mm
13:44 17.3 °C 14.2 °C 1008.4 hPa North 4.8 km/h 12.9 km/h 82% 0 mm
13:49 17.1 °C 13.9 °C 1008.4 hPa NNW 6.4 km/h 14.5 km/h 82% 0 mm
13:54 16.8 °C 13.9 °C 1008.4 hPa NNW 6.4 km/h 14.5 km/h 83% 0 mm
13:59 16.9 °C 14.3 °C 1008.4 hPa East 4.8 km/h 16.1 km/h 85% 0 mm
14:04 16.3 °C 13.6 °C 1008.4 hPa North 4.8 km/h 16.1 km/h 84% 0 mm
14:09 16.3 °C 13.6 °C 1008.7 hPa North 1.6 km/h 17.7 km/h 84% 0 mm
14:14 17.2 °C 14.3 °C 1008.4 hPa NNE 4.8 km/h 17.7 km/h 83% 0 mm
14:19 17.3 °C 14.2 °C 1008.4 hPa NNE 3.2 km/h 16.1 km/h 82% 0 mm
14:24 17.9 °C 14.8 °C 1008.4 hPa North 6.4 km/h 16.1 km/h 82% 0 mm
14:29 18.2 °C 15.1 °C 1008.7 hPa NNE 6.4 km/h 12.9 km/h 82% 0 mm
14:34 17.6 °C 14.1 °C 1008.7 hPa North 6.4 km/h 19.3 km/h 80% 0 mm
14:39 16.8 °C 13.7 °C 1008.7 hPa North 6.4 km/h 19.3 km/h 82% 0 mm
14:44 16.1 °C 13.6 °C 1008.7 hPa North 6.4 km/h 19.3 km/h 85% 0 mm
14:49 15.7 °C 13.5 °C 1009 hPa North 8 km/h 16.1 km/h 87% 0 mm
14:54 15.1 °C 13.1 °C 1009 hPa North 6.4 km/h 16.1 km/h 88% 0.25 mm
14:59 14.8 °C 12.8 °C 1009 hPa NNE 6.4 km/h 14.5 km/h 88% 0.25 mm
15:04 14.7 °C 12.8 °C 1009.4 hPa NE 9.7 km/h 17.7 km/h 88% 0.25 mm
15:09 14.8 °C 12.8 °C 1009.4 hPa NE 6.4 km/h 14.5 km/h 88% 0.25 mm
15:14 14.9 °C 12.8 °C 1009.4 hPa NE 6.4 km/h 25.7 km/h 87% 0.25 mm
15:19 15.3 °C 13.1 °C 1009.4 hPa North 6.4 km/h 17.7 km/h 87% 0.25 mm
15:24 15.8 °C 13.8 °C 1009.4 hPa NE 4.8 km/h 17.7 km/h 88% 0.25 mm
15:29 16.1 °C 13.1 °C 1009.7 hPa NE 6.4 km/h 17.7 km/h 82% 0.25 mm
15:34 15.4 °C 12.5 °C 1009.7 hPa NNE 8 km/h 17.7 km/h 83% 0.25 mm
15:39 14.9 °C 12 °C 1009.7 hPa NE 12.9 km/h 14.5 km/h 83% 0.25 mm
15:44 14.7 °C 11.9 °C 1009.7 hPa North 6.4 km/h 22.5 km/h 83% 0.25 mm
15:49 14.4 °C 11.8 °C 1009.7 hPa NNE 3.2 km/h 17.7 km/h 84% 0.25 mm
15:54 14.3 °C 11.6 °C 1010 hPa NE 8 km/h 17.7 km/h 84% 0 mm
15:59 14.3 °C 11.6 °C 1010 hPa NE 6.4 km/h 25.7 km/h 84% 0 mm
16:04 14.2 °C 11.5 °C 1010 hPa NE 6.4 km/h 25.7 km/h 84% 0 mm
16:09 14.2 °C 11.7 °C 1010 hPa NE 8 km/h 22.5 km/h 85% 0 mm
16:14 14.2 °C 11.6 °C 1010 hPa NE 8 km/h 22.5 km/h 84% 0 mm
16:19 14.1 °C 11.2 °C 1010 hPa NE 11.3 km/h 25.7 km/h 83% 0 mm
16:24 14.1 °C 11.2 °C 1010.4 hPa NE 12.9 km/h 22.5 km/h 83% 0 mm
16:29 14.1 °C 11.4 °C 1010.4 hPa NNE 11.3 km/h 19.3 km/h 84% 0 mm
16:34 13.9 °C 11.1 °C 1010.4 hPa NNE 3.2 km/h 24.1 km/h 83% 0 mm
16:39 13.7 °C 11.2 °C 1010.4 hPa NE 6.4 km/h 14.5 km/h 85% 0 mm
16:44 13.6 °C 11.1 °C 1010.7 hPa NNE 8 km/h 12.9 km/h 85% 0 mm
16:49 13.7 °C 11.4 °C 1010.4 hPa NE 4.8 km/h 19.3 km/h 86% 0 mm
16:54 13.7 °C 11.2 °C 1010.7 hPa NNE 6.4 km/h 22.5 km/h 85% 0 mm
16:59 13.6 °C 11.1 °C 1010.7 hPa NE 9.7 km/h 22.5 km/h 85% 0 mm
17:04 13.6 °C 11.1 °C 1010.7 hPa NE 9.7 km/h 20.9 km/h 85% 0 mm
17:09 13.6 °C 11.1 °C 1010.7 hPa NE 9.7 km/h 20.9 km/h 85% 0 mm
17:14 13.3 °C 11.1 °C 1010.7 hPa NE 9.7 km/h 25.7 km/h 86% 0 mm
17:19 13.3 °C 11.2 °C 1011.1 hPa NE 8 km/h 25.7 km/h 87% 0 mm
17:24 13.3 °C 11.2 °C 1011.1 hPa NE 8 km/h 17.7 km/h 87% 0 mm
17:29 13.3 °C 11.2 °C 1011.1 hPa NNE 6.4 km/h 19.3 km/h 87% 0 mm
17:34 13.3 °C 11.2 °C 1011.1 hPa NNE 4.8 km/h 19.3 km/h 87% 0 mm
17:39 13.3 °C 11.2 °C 1011.1 hPa NE 9.7 km/h 20.9 km/h 87% 0 mm
17:44 13.3 °C 11.2 °C 1011.1 hPa ENE 11.3 km/h 14.5 km/h 87% 0 mm
17:49 12.9 °C 10.8 °C 1011.4 hPa NNE 6.4 km/h 20.9 km/h 87% 0 mm
17:54 12.8 °C 10.7 °C 1011.4 hPa North 8 km/h 14.5 km/h 87% 0 mm
17:59 12.7 °C 10.7 °C 1011.7 hPa NE 4.8 km/h 14.5 km/h 88% 0 mm
18:04 12.6 °C 10.7 °C 1011.7 hPa NE 6.4 km/h 16.1 km/h 88% 0 mm
18:09 12.6 °C 10.6 °C 1011.7 hPa NE 6.4 km/h 17.7 km/h 88% 0 mm
18:14 12.5 °C 10.7 °C 1011.7 hPa NNE 6.4 km/h 17.7 km/h 89% 0 mm
18:19 12.4 °C 10.6 °C 1012.1 hPa NNE 6.4 km/h 12.9 km/h 89% 0 mm
18:24 12.4 °C 10.7 °C 1012.1 hPa NNE 1.6 km/h 14.5 km/h 89% 0 mm
18:29 12.6 °C 10.8 °C 1012.1 hPa NNE 3.2 km/h 9.7 km/h 89% 0 mm
18:34 12.7 °C 10.9 °C 1012.1 hPa NNE 4.8 km/h 9.7 km/h 89% 0 mm
18:39 12.6 °C 10.7 °C 1012.1 hPa NE 6.4 km/h 16.1 km/h 88% 0 mm
18:44 12.6 °C 10.7 °C 1012.4 hPa NE 6.4 km/h 14.5 km/h 88% 0 mm
18:49 12.6 °C 10.8 °C 1012.4 hPa NNE 8 km/h 14.5 km/h 89% 0 mm
18:54 12.4 °C 10.6 °C 1012.4 hPa North 3.2 km/h 17.7 km/h 89% 0.25 mm
19:04 12.3 °C 10.5 °C 1012.8 hPa NNE 6.4 km/h 16.1 km/h 89% 0.25 mm
19:09 12.3 °C 10.5 °C 1012.8 hPa NNE 6.4 km/h 16.1 km/h 89% 0.25 mm
19:14 12.2 °C 10.4 °C 1012.8 hPa NNE 6.4 km/h 19.3 km/h 89% 0.25 mm
19:19 12.2 °C 10.4 °C 1012.8 hPa NNE 6.4 km/h 19.3 km/h 89% 0.25 mm
19:24 12.1 °C 10.2 °C 1012.8 hPa NNE 6.4 km/h 17.7 km/h 88% 0.25 mm
19:29 12.1 °C 10.1 °C 1012.8 hPa NNE 6.4 km/h 24.1 km/h 88% 0.25 mm
19:34 12.1 °C 10.1 °C 1013.1 hPa NNE 4.8 km/h 16.1 km/h 88% 0.25 mm
19:39 12.1 °C 10.1 °C 1013.1 hPa NE 4.8 km/h 20.9 km/h 88% 0.25 mm
19:44 12.1 °C 10.2 °C 1013.1 hPa NNE 3.2 km/h 20.9 km/h 88% 0.25 mm
19:49 12.1 °C 10.2 °C 1013.1 hPa East 17.7 km/h 22.5 km/h 88% 0.25 mm
19:54 12.2 °C 10.3 °C 1013.1 hPa NNE 1.6 km/h 17.7 km/h 88% 0 mm
19:59 12.3 °C 10.2 °C 1013.1 hPa North 4.8 km/h 9.7 km/h 87% 0 mm
20:04 12.3 °C 10.2 °C 1013.1 hPa NNE 6.4 km/h 14.5 km/h 87% 0 mm
20:09 12.3 °C 10.2 °C 1013.1 hPa NNE 6.4 km/h 16.1 km/h 87% 0 mm
20:14 12.3 °C 10 °C 1013.4 hPa NE 6.4 km/h 16.1 km/h 86% 0 mm
20:19 12.2 °C 9.9 °C 1013.4 hPa NE 4.8 km/h 17.7 km/h 86% 0 mm
20:24 12.1 °C 9.8 °C 1013.4 hPa NE 11.3 km/h 17.7 km/h 86% 0 mm
20:29 12 °C 9.9 °C 1013.4 hPa NE 8 km/h 17.7 km/h 87% 0 mm
20:34 11.9 °C 9.8 °C 1013.4 hPa NE 8 km/h 16.1 km/h 87% 0 mm
20:39 11.8 °C 9.9 °C 1013.4 hPa NE 8 km/h 16.1 km/h 88% 0 mm
20:44 11.8 °C 10 °C 1013.4 hPa NE 6.4 km/h 16.1 km/h 89% 0 mm
20:49 11.6 °C 9.8 °C 1013.4 hPa NE 11.3 km/h 16.1 km/h 89% 0 mm
20:54 11.6 °C 9.8 °C 1013.8 hPa NE 6.4 km/h 17.7 km/h 89% 0 mm
20:59 11.6 °C 9.9 °C 1013.8 hPa NE 4.8 km/h 17.7 km/h 90% 0 mm
21:04 11.6 °C 9.9 °C 1013.8 hPa ENE 12.9 km/h 14.5 km/h 90% 0 mm
21:09 11.5 °C 9.9 °C 1013.8 hPa NNW 3.2 km/h 16.1 km/h 90% 0 mm
21:14 11.4 °C 9.9 °C 1013.8 hPa NNE 4.8 km/h 11.3 km/h 90% 0 mm
21:19 11.4 °C 9.8 °C 1013.8 hPa NE 3.2 km/h 11.3 km/h 90% 0 mm
21:24 11.3 °C 9.8 °C 1013.8 hPa NNE 8 km/h 16.1 km/h 90% 0 mm
21:29 11.3 °C 9.9 °C 1014.1 hPa NE 6.4 km/h 17.7 km/h 91% 0 mm
21:34 11.3 °C 9.7 °C 1014.1 hPa NE 6.4 km/h 17.7 km/h 90% 0 mm
21:39 11.2 °C 9.7 °C 1014.1 hPa NE 6.4 km/h 16.1 km/h 90% 0 mm
21:49 11.2 °C 9.7 °C 1014.1 hPa NE 6.4 km/h 22.5 km/h 90% 0 mm
21:54 11.2 °C 9.6 °C 1014.1 hPa NE 6.4 km/h 8 km/h 90% 0 mm
21:59 11.1 °C 9.6 °C 1014.1 hPa NE 4.8 km/h 14.5 km/h 90% 0 mm
22:04 11.1 °C 9.6 °C 1014.4 hPa ENE 3.2 km/h 12.9 km/h 90% 0 mm
22:09 11.1 °C 9.6 °C 1014.4 hPa East 14.5 km/h 14.5 km/h 90% 0 mm
22:14 11.2 °C 9.6 °C 1014.4 hPa NE 6.4 km/h 17.7 km/h 90% 0 mm
22:19 11.2 °C 9.8 °C 1014.4 hPa ENE 1.6 km/h 14.5 km/h 91% 0 mm
22:24 11.2 °C 9.8 °C 1014.4 hPa NE 3.2 km/h 9.7 km/h 91% 0 mm
22:29 11.1 °C 9.7 °C 1014.8 hPa NE 3.2 km/h 11.3 km/h 91% 0 mm
22:34 11.1 °C 9.7 °C 1014.8 hPa NE 3.2 km/h 14.5 km/h 91% 0 mm
22:39 11.1 °C 9.7 °C 1014.8 hPa NE 4.8 km/h 17.7 km/h 91% 0.25 mm
22:44 11.1 °C 9.7 °C 1014.8 hPa NE 6.4 km/h 17.7 km/h 91% 0.25 mm
22:49 11.1 °C 9.8 °C 1014.8 hPa NE 3.2 km/h 17.7 km/h 92% 0.25 mm
22:54 11.1 °C 9.8 °C 1014.8 hPa NNE 1.6 km/h 9.7 km/h 92% 0.25 mm
22:59 10.9 °C 9.6 °C 1014.8 hPa NNE 4.8 km/h 14.5 km/h 91% 0.25 mm
23:04 10.9 °C 9.5 °C 1014.8 hPa NE 4.8 km/h 9.7 km/h 91% 0.25 mm
23:09 10.8 °C 9.4 °C 1014.8 hPa NNE 4.8 km/h 17.7 km/h 91% 0.25 mm
23:14 10.7 °C 9.5 °C 1014.8 hPa NE 12.9 km/h 17.7 km/h 92% 0.25 mm
23:19 10.7 °C 9.4 °C 1015.1 hPa ENE 11.3 km/h 17.7 km/h 92% 0.25 mm
23:24 10.7 °C 9.4 °C 1015.1 hPa NE 3.2 km/h 14.5 km/h 92% 0.25 mm
23:29 10.7 °C 9.5 °C 1015.1 hPa NE 6.4 km/h 16.1 km/h 92% 0.25 mm
23:34 10.7 °C 9.4 °C 1015.1 hPa NE 8 km/h 19.3 km/h 92% 0.25 mm
23:39 10.7 °C 9.5 °C 1015.1 hPa NE 8 km/h 19.3 km/h 92% 0 mm
23:44 10.8 °C 9.6 °C 1015.1 hPa NE 4.8 km/h 16.1 km/h 92% 0 mm
23:49 10.8 °C 9.6 °C 1015.1 hPa NNE 3.2 km/h 8 km/h 92% 0.25 mm
23:54 10.8 °C 9.6 °C 1015.1 hPa NE 3.2 km/h 8 km/h 92% 0.25 mm
23:59 10.7 °C 9.5 °C 1015.1 hPa ENE 8 km/h 14.5 km/h 92% 0.25 mm
Buffalo, New York, USA
Compliments of Weather Underground - 2.5 mb